Regional Weather Roundup
Issued by NWS Charleston, WV

Home | Current Version | Previous Version | Graphics & Text | Print | Product List | Glossary On
Versions: 1 2 3 4 5 6 7 8 9 10 11 12 13 14 15 16 17 18 19 20 21 22 23 24 25 26 27 28 29 30 31 32 33 34 35 36 37 38 39 40 41 42 43 44 45 46 47 48 49 50
000
ASUS41 KRLX 161410
RWRRLX
West Virginia Regional Weather Roundup
National Weather Service Charleston WV
1000 AM EDT MON OCT 16 2017

Note: "fair" indicates few or no clouds below 12,000 feet with no
significant weather and/or obstructions to visibility.

WVZ003-161500-
Northern Panhandle of West Virginia

CITY           SKY/WX    TMP DP  RH WIND       PRES   REMARKS
WHEELING       LGT RAIN  47  43  86 N7        30.23R
$$

WVZ009-161500-
Northwest West Virginia

CITY           SKY/WX    TMP DP  RH WIND       PRES   REMARKS
PARKERSBURG    PTSUNNY   53  42  66 N9        30.27R
$$

WVZ006-161500-
Western West Virginia

CITY           SKY/WX    TMP DP  RH WIND       PRES   REMARKS
HUNTINGTON     MOSUNNY   52  43  71 NW9       30.27R
$$

WVZ015-161500-
West Central West Virginia

CITY           SKY/WX    TMP DP  RH WIND       PRES   REMARKS
CHARLESTON     PTSUNNY   52  45  77 VRB6      30.24R
$$

WVZ022-031-161500-
North Central West Virginia

CITY           SKY/WX    TMP DP  RH WIND       PRES   REMARKS
CLARKSBURG     CLOUDY    52  42  69 NW7       30.20R
MORGANTOWN     CLOUDY    50  41  71 N5        30.22R
$$

WVZ025-035-042-045-161500-
Southern West Virginia

CITY           SKY/WX    TMP DP  RH WIND       PRES   REMARKS
BECKLEY        CLOUDY    47  40  76 NW8       30.20R
LOGAN          CLOUDY    50  45  81 VRB5      30.23R
BLUEFIELD      CLOUDY    45  38  76 VRB7      30.21R
LEWISBURG      CLOUDY    51  40  66 NW6       30.18S
$$

WVZ047-161500-
Northern Mountains of West Virginia

CITY           SKY/WX    TMP DP  RH WIND       PRES   REMARKS
ELKINS         CLOUDY    50  42  74 NW6       30.19R
$$

WVZ052-161500-
Eastern Panhandle of West Virginia

CITY           SKY/WX    TMP DP  RH WIND       PRES   REMARKS
MARTINSBURG    CLOUDY    56  40  55 N15G23    30.12R
PETERSBURG     CLOUDY    55  42  60 N8        30.16R
$$



USA.gov is the U.S. government's official web portal to all federal, state and local government web resources and services.